PU5BHV Weather Reports


time (UTC)temp
C
wind
direction
speed
KPH
gust
KPH
rain 1hr
cm
rain 24hr
cm
rain mn
cm
humidity
%
barometer
mb
20260508034647 22 42 0.0 0.0 0.00 0.00 0.00 99 1008.4
20260508034144 22 42 0.0 0.0 0.00 0.00 0.00 99 1008.6
20260508033642 22 42 0.0 0.0 0.00 0.00 0.00 99 1008.4
20260508033141 22 42 0.0 0.0 0.00 0.00 0.00 99 1008.6
20260508032636 22 42 0.0 0.0 0.00 0.00 0.00 98 1008.6
20260508032134 22 42 0.0 0.0 0.00 0.00 0.00 98 1008.8
20260508031631 22 42 0.0 0.0 0.00 0.00 0.00 98 1008.8
20260508031127 22 42 0.0 0.0 0.00 0.00 0.00 98 1009.0
20260508030623 22 42 0.0 0.0 0.00 0.00 0.00 98 1008.7
20260508030121 22 42 0.0 0.0 0.00 0.00 0.00 98 1008.9
20260508025617 22 42 0.0 0.0 0.00 0.00 0.00 98 1009.0
20260508025114 22 42 0.0 0.0 0.00 0.00 0.00 98 1009.1
20260508024610 22 42 0.0 0.0 0.00 0.00 0.00 98 1009.0
20260508024108 22 42 0.0 0.0 0.00 0.00 0.00 98 1009.0
20260508023604 22 42 0.0 0.0 0.00 0.00 0.00 98 1009.3
20260508023101 22 42 0.0 0.0 0.00 0.00 0.00 98 1009.2
20260508022557 22 42 0.0 0.0 0.00 0.00 0.00 98 1009.3
20260508022054 22 42 0.0 0.0 0.00 0.00 0.00 98 1009.4
20260508021550 22 42 0.0 0.0 0.00 0.00 0.00 97 1009.0
20260508021046 22 42 0.0 0.0 0.00 0.00 0.00 97 1009.3
20260508020544 22 42 0.0 0.0 0.00 0.00 0.00 97 1009.2
20260508020041 22 39 0.0 0.0 0.00 0.00 0.00 97 1009.4
20260508015539 22 39 0.0 0.0 0.00 0.00 0.00 97 1009.4
20260508015036 22 40 0.0 0.0 0.00 0.00 0.00 97 1009.2
20260508014532 22 14 0.0 0.0 0.00 0.00 0.00 97 1009.2
20260508014028 22 14 0.0 0.0 0.00 0.00 0.00 96 1009.4
20260508013524 22 14 0.0 0.0 0.00 0.00 0.00 96 1009.1
20260508013022 22 14 0.0 0.0 0.00 0.00 0.00 95 1009.2
20260508012519 22 14 0.0 0.0 0.00 0.00 0.00 95 1009.3
20260508012016 22 14 0.0 0.0 0.00 0.00 0.00 95 1009.0
20260508011514 23 14 0.0 0.0 0.00 0.00 0.00 94 1009.1
20260508011011 23 14 0.0 0.0 0.00 0.00 0.00 94 1009.1
20260508010508 23 37 0.0 0.0 0.00 0.00 0.00 94 1008.8
20260508010005 23 146 0.0 0.0 0.00 0.00 0.00 93 1008.8
20260508005502 23 157 0.0 1.6 0.00 0.00 0.00 93 1008.9
20260508004959 23 301 0.0 0.0 0.00 0.00 0.00 93 1009.0
20260508004454 23 19 1.6 1.6 0.00 0.00 0.00 92 1009.3
20260508003952 23 301 1.6 1.6 0.00 0.00 0.00 92 1008.9
20260508003448 23 342 0.0 1.6 0.00 0.00 0.00 93 1009.2
20260508002946 23 312 1.6 1.6 0.00 0.00 0.00 92 1009.2
20260508002442 23 291 3.2 3.2 0.00 0.00 0.00 92 1009.2
20260508001938 23 297 1.6 3.2 0.00 0.00 0.00 92 1009.2
20260508001434 23 350 3.2 4.8 0.00 0.00 0.00 92 1009.1
20260508000931 23 314 1.6 1.6 0.00 0.00 0.00 92 1009.3
20260508000427 23 338 3.2 3.2 0.00 0.00 0.00 92 1009.3
20260507235924 23 304 1.6 1.6 0.00 0.00 0.00 92 1009.2
20260507235421 23 328 1.6 1.6 0.00 0.00 0.00 92 1009.1
20260507234918 23 300 1.6 1.6 0.00 0.00 0.00 92 1009.2
20260507234415 23 325 3.2 3.2 0.00 0.00 0.00 91 1009.3
20260507233911 23 321 1.6 1.6 0.00 0.00 0.00 91 1009.2
20260507233408 23 306 1.6 1.6 0.00 0.00 0.00 91 1009.2
20260507232907 23 291 3.2 3.2 0.00 0.00 0.00 91 1009.3
20260507232403 23 302 1.6 1.6 0.00 0.00 0.00 91 1009.0
20260507231901 23 326 1.6 1.6 0.00 0.00 0.00 91 1009.1
20260507231357 23 304 0.0 0.0 0.00 0.00 0.00 91 1009.1
20260507230853 23 322 1.6 1.6 0.00 0.00 0.00 91 1008.9
20260507230351 23 280 0.0 0.0 0.00 0.00 0.00 92 1008.7
20260507225850 23 107 0.0 1.6 0.00 0.00 0.00 92 1008.8
20260507225347 23 178 0.0 0.0 0.00 0.00 0.00 92 1009.0
20260507224843 23 189 0.0 0.0 0.00 0.00 0.00 92 1008.9
20260507224340 23 162 0.0 0.0 0.00 0.00 0.00 93 1008.9
20260507223835 23 25 0.0 0.0 0.00 0.00 0.00 93 1008.9
20260507223332 23 348 0.0 0.0 0.00 0.00 0.00 93 1008.8
20260507222829 23 357 1.6 1.6 0.00 0.00 0.00 93 1009.0
20260507222325 23 357 0.0 1.6 0.00 0.00 0.00 93 1009.0
20260507221823 23 348 0.0 0.0 0.00 0.00 0.00 94 1009.0
20260507221319 23 49 0.0 1.6 0.00 0.00 0.00 94 1008.8
20260507220815 23 338 0.0 0.0 0.00 0.00 0.00 95 1008.8
20260507220314 23 322 0.0 1.6 0.00 0.00 0.00 95 1008.7
20260507215809 23 322 1.6 1.6 0.00 0.00 0.00 95 1008.5
20260507215307 23 318 0.0 0.0 0.00 0.00 0.00 95 1008.4
20260507214804 23 318 0.0 0.0 0.00 0.00 0.00 95 1008.5
20260507214301 23 317 0.0 0.0 0.00 0.00 0.00 95 1008.1
20260507213756 23 317 0.0 0.0 0.00 0.00 0.00 95 1008.3
20260507213253 23 317 0.0 0.0 0.00 0.00 0.00 95 1008.1
20260507212750 23 317 0.0 0.0 0.00 0.00 0.00 95 1007.9
20260507212246 23 317 0.0 0.0 0.00 0.00 0.00 94 1008.4
20260507211743 24 317 0.0 0.0 0.00 0.00 0.00 94 1008.2
20260507211239 24 317 0.0 0.0 0.00 0.00 0.00 93 1008.1
20260507210736 24 318 0.0 0.0 0.00 0.00 0.00 93 1007.9
20260507210233 25 318 0.0 0.0 0.00 0.00 0.00 92 1007.9
20260507205730 25 318 0.0 0.0 0.00 0.00 0.00 91 1007.7
20260507205227 25 318 0.0 0.0 0.00 0.00 0.00 89 1007.9
20260507204723 25 317 0.0 0.0 0.00 0.00 0.00 88 1007.7
20260507204221 25 323 1.6 1.6 0.00 0.00 0.00 88 1007.7
20260507203718 25 296 0.0 1.6 0.00 0.00 0.00 88 1007.7
20260507203216 25 314 0.0 1.6 0.00 0.00 0.00 88 1007.3
20260507202711 26 307 1.6 1.6 0.00 0.00 0.00 87 1007.3
20260507202208 26 328 1.6 1.6 0.00 0.00 0.00 87 1007.2
20260507201702 26 299 3.2 3.2 0.00 0.00 0.00 86 1007.0
20260507201200 26 304 1.6 1.6 0.00 0.00 0.00 86 1007.1
20260507200656 26 318 1.6 1.6 0.00 0.00 0.00 86 1007.0
20260507200152 26 288 0.0 0.0 0.00 0.00 0.00 85 1007.1
20260507195649 26 298 3.2 3.2 0.00 0.00 0.00 85 1007.3
20260507195146 26 332 1.6 1.6 0.00 0.00 0.00 84 1007.3
20260507194643 26 307 1.6 1.6 0.00 0.00 0.00 83 1007.1
20260507194138 26 307 1.6 1.6 0.00 0.00 0.00 83 1007.1
20260507193635 26 280 1.6 1.6 0.00 0.00 0.00 83 1007.1
20260507193133 26 316 1.6 1.6 0.00 0.00 0.00 83 1007.1
20260507192628 27 321 1.6 3.2 0.00 0.00 0.00 82 1007.3
20260507192126 27 272 1.6 3.2 0.00 0.00 0.00 80 1007.0
20260507191621 27 5 0.0 0.0 0.00 0.00 0.00 80 1007.2
20260507191118 27 323 1.6 1.6 0.00 0.00 0.00 79 1007.3
20260507190615 27 325 1.6 1.6 0.00 0.00 0.00 79 1007.2
20260507190114 27 316 3.2 3.2 0.00 0.00 0.00 80 1007.2
20260507185612 28 268 1.6 1.6 0.00 0.00 0.00 78 1007.5
20260507185108 28 298 3.2 3.2 0.00 0.00 0.00 78 1007.5
20260507184607 28 315 1.6 1.6 0.00 0.00 0.00 76 1007.6
20260507184104 28 339 1.6 1.6 0.00 0.00 0.00 78 1007.5
20260507183600 28 322 1.6 1.6 0.00 0.00 0.00 76 1007.5
20260507183057 28 305 1.6 1.6 0.00 0.00 0.00 74 1007.2
20260507182553 29 325 1.6 1.6 0.00 0.00 0.00 74 1007.6
20260507182049 29 313 3.2 3.2 0.00 0.00 0.00 72 1007.3
20260507181547 29 319 3.2 3.2 0.00 0.00 0.00 72 1007.6
20260507181043 28 301 1.6 3.2 0.00 0.00 0.00 74 1007.7
20260507180539 28 316 3.2 3.2 0.00 0.00 0.00 74 1007.6
20260507180036 28 338 1.6 1.6 0.00 0.00 0.00 76 1007.7
20260507175532 28 315 3.2 4.8 0.00 0.00 0.00 74 1007.9
20260507175030 29 312 3.2 3.2 0.00 0.00 0.00 73 1007.9
20260507174527 29 358 1.6 3.2 0.00 0.00 0.00 70 1007.8
20260507174025 29 127 0.0 1.6 0.00 0.00 0.00 71 1008.2
20260507173521 29 304 3.2 3.2 0.00 0.00 0.00 71 1008.1
20260507173019 28 319 3.2 4.8 0.00 0.00 0.00 73 1008.2
20260507172514 28 1 1.6 3.2 0.00 0.00 0.00 75 1008.4
20260507172011 28 314 3.2 3.2 0.00 0.00 0.00 73 1008.4
20260507171507 30 1 3.2 3.2 0.00 0.00 0.00 71 1008.5
20260507171005 30 334 1.6 3.2 0.00 0.00 0.00 69 1008.4
20260507170501 30 341 3.2 3.2 0.00 0.00 0.00 71 1008.6
20260507165957 29 305 3.2 3.2 0.00 0.00 0.00 71 1008.5
20260507165454 28 317 6.4 8.0 0.00 0.00 0.00 72 1008.4
20260507164949 29 289 1.6 3.2 0.00 0.00 0.00 70 1008.7
20260507164447 30 325 0.0 1.6 0.00 0.00 0.00 70 1008.9
20260507163943 29 325 3.2 3.2 0.00 0.00 0.00 69 1008.7
20260507163441 29 346 1.6 3.2 0.00 0.00 0.00 70 1009.0
20260507162938 29 337 1.6 3.2 0.00 0.00 0.00 70 1009.5
20260507162433 30 322 3.2 4.8 0.00 0.00 0.00 70 1009.5
20260507161931 28 331 3.2 4.8 0.00 0.00 0.00 73 1009.6
20260507161426 28 332 1.6 3.2 0.00 0.00 0.00 71 1009.9
20260507160924 28 11 3.2 3.2 0.00 0.00 0.00 73 1009.9
20260507160419 28 305 1.6 4.8 0.00 0.00 0.00 72 1010.2
20260507155915 28 322 3.2 3.2 0.00 0.00 0.00 72 1010.2
20260507155411 28 308 6.4 9.7 0.00 0.00 0.00 74 1010.3
20260507154909 28 337 0.0 1.6 0.00 0.00 0.00 74 1010.3
20260507154406 28 6 3.2 4.8 0.00 0.00 0.00 74 1010.7
20260507153903 28 57 3.2 3.2 0.00 0.00 0.00 72 1010.8
20260507153626 28 340 1.6 1.6 0.00 0.00 0.00 71 1011.1
20260507153359 28 340 1.6 1.6 0.00 0.00 0.00 71 1011.1
20260507153223 28 22 4.8 8.0 0.00 0.00 0.00 72 1010.9
20260507152855 28 22 4.8 8.0 0.00 0.00 0.00 72 1010.9
20260507152729 28 354 0.0 0.0 0.00 0.00 0.00 73 1011.2
20260507152352 29 325 3.2 3.2 0.00 0.00 0.00 72 1011.1
20260507151848 28 354 0.0 0.0 0.00 0.00 0.00 73 1011.2
20260507151344 28 281 1.6 1.6 0.00 0.00 0.00 72 1011.3
20260507150842 28 59 0.0 1.6 0.00 0.00 0.00 74 1011.7
20260507150338 28 97 1.6 1.6 0.00 0.00 0.00 73 1011.9
20260507145834 27 59 0.0 0.0 0.00 0.00 0.00 74 1011.9
20260507145331 28 303 4.8 8.0 0.00 0.00 0.00 72 1011.9
20260507144828 28 1 0.0 0.0 0.00 0.00 0.00 74 1012.1
20260507144239 27 354 0.0 0.0 0.00 0.00 0.00 74 1012.5
20260507143735 27 354 0.0 0.0 0.00 0.00 0.00 74 1012.5
20260507143232 27 354 0.0 0.0 0.00 0.00 0.00 74 1012.5
20260507142728 27 61 4.8 4.8 0.00 0.00 0.00 74 1012.7
20260507142225 27 231 3.2 4.8 0.00 0.00 0.00 75 1013.0
20260507141721 26 342 1.6 3.2 0.00 0.00 0.00 78 1013.2
20260507141219 26 21 1.6 1.6 0.00 0.00 0.00 78 1013.0
20260507140714 26 59 1.6 3.2 0.00 0.00 0.00 78 1013.2
20260507140212 26 312 1.6 1.6 0.00 0.00 0.00 78 1013.1
20260507135709 26 38 0.0 0.0 0.00 0.00 0.00 81 1013.3
20260507135206 25 26 1.6 1.6 0.00 0.00 0.00 82 1013.5
20260507134702 25 287 3.2 3.2 0.00 0.00 0.00 83 1013.4
20260507134159 25 350 1.6 3.2 0.00 0.00 0.00 83 1013.6
20260507133654 25 11 1.6 1.6 0.00 0.00 0.00 83 1013.8
20260507133152 25 351 1.6 1.6 0.00 0.00 0.00 83 1014.0
20260507132649 25 336 4.8 4.8 0.00 0.00 0.00 84 1013.9
20260507132145 25 109 1.6 1.6 0.00 0.00 0.00 84 1013.9
20260507131643 25 286 3.2 4.8 0.00 0.00 0.00 83 1014.1
20260507131140 25 310 1.6 3.2 0.00 0.00 0.00 84 1013.9
20260507130636 25 338 1.6 3.2 0.00 0.00 0.00 84 1013.9
20260507130134 25 65 0.0 1.6 0.00 0.00 0.00 83 1014.0
20260507125633 25 328 4.8 4.8 0.00 0.00 0.00 82 1013.9
20260507125130 25 47 1.6 1.6 0.00 0.00 0.00 82 1014.1
20260507124626 25 297 1.6 1.6 0.00 0.00 0.00 81 1014.4
20260507124124 25 18 1.6 3.2 0.00 0.00 0.00 83 1014.5
20260507123622 26 18 1.6 3.2 0.00 0.00 0.00 82 1014.2
20260507123119 25 14 1.6 1.6 0.00 0.00 0.00 83 1014.2
20260507122614 25 75 1.6 1.6 0.00 0.00 0.00 84 1014.1
20260507122110 25 47 1.6 1.6 0.00 0.00 0.00 84 1014.3
20260507121606 25 13 3.2 3.2 0.00 0.00 0.00 87 1014.3
20260507121102 24 44 0.0 1.6 0.00 0.00 0.00 88 1014.4
20260507120558 23 33 1.6 3.2 0.00 0.00 0.00 90 1014.3
20260507120055 23 294 3.2 4.8 0.00 0.00 0.00 90 1014.3
20260507115551 23 180 0.0 0.0 0.00 0.00 0.00 90 1014.5
20260507115047 23 338 1.6 1.6 0.00 0.00 0.00 90 1014.6
20260507114543 23 337 1.6 1.6 0.00 0.00 0.00 91 1014.3
20260507114041 23 34 1.6 3.2 0.00 0.00 0.00 92 1014.2
20260507113537 23 312 1.6 1.6 0.00 0.00 0.00 92 1014.7
20260507113035 23 15 1.6 1.6 0.00 0.00 0.00 91 1014.6
20260507112532 23 343 0.0 0.0 0.00 0.00 0.00 93 1014.6
20260507112029 23 355 1.6 1.6 0.00 0.00 0.00 93 1014.6
20260507111526 23 323 3.2 3.2 0.00 0.00 0.00 93 1014.3
20260507111023 23 78 1.6 1.6 0.00 0.00 0.00 94 1014.5
20260507110519 23 310 1.6 3.2 0.00 0.00 0.00 94 1014.4
20260507110016 22 336 0.0 1.6 0.00 0.00 0.00 96 1014.2
20260507105513 22 308 1.6 3.2 0.00 0.00 0.00 97 1014.3
20260507105009 22 18 0.0 0.0 0.00 0.00 0.00 98 1014.7
20260507104507 22 314 1.6 1.6 0.00 0.00 0.00 99 1014.2
20260507104003 22 84 0.0 0.0 0.00 0.00 0.00 99 1014.4
20260507103459 22 307 0.0 0.0 0.00 0.00 0.00 99 1014.3
20260507102955 22 313 0.0 1.6 0.00 0.00 0.00 99 1014.4
20260507102452 22 328 0.0 1.6 0.00 0.00 0.00 99 1014.4
20260507101948 22 284 1.6 1.6 0.00 0.00 0.00 99 1014.4
20260507101443 22 305 0.0 0.0 0.00 0.00 0.00 99 1014.4
20260507100940 22 322 0.0 0.0 0.00 0.00 0.00 99 1014.4
20260507100438 22 317 0.0 0.0 0.00 0.00 0.00 99 1014.2
20260507095936 22 336 0.0 0.0 0.00 0.00 0.00 99 1014.4
20260507095433 22 336 0.0 0.0 0.00 0.00 0.00 99 1014.1
20260507094930 22 336 0.0 0.0 0.00 0.00 0.00 99 1014.1
20260507094426 22 333 0.0 0.0 0.00 0.00 0.00 99 1014.0
20260507093923 22 333 0.0 0.0 0.00 0.00 0.00 99 1013.9
20260507093421 22 333 0.0 0.0 0.00 0.00 0.00 99 1014.1
20260507092919 22 332 0.0 0.0 0.00 0.00 0.00 99 1014.1
20260507092415 22 332 0.0 0.0 0.00 0.00 0.00 99 1014.0
20260507091912 22 332 0.0 0.0 0.00 0.00 0.00 99 1014.0
20260507091408 22 332 0.0 0.0 0.00 0.00 0.00 99 1014.1
20260507090904 22 333 0.0 0.0 0.00 0.00 0.00 99 1013.9
20260507090400 22 333 0.0 0.0 0.00 0.00 0.00 99 1014.3
20260507085857 22 332 0.0 0.0 0.00 0.00 0.00 99 1014.2
20260507085354 22 332 0.0 0.0 0.00 0.00 0.00 99 1014.1
20260507084852 22 333 0.0 0.0 0.00 0.00 0.00 99 1013.9
20260507084348 22 332 0.0 0.0 0.00 0.00 0.00 99 1013.9
20260507083845 22 333 0.0 0.0 0.00 0.00 0.00 99 1014.1
20260507083342 22 333 0.0 0.0 0.00 0.00 0.00 99 1014.0
20260507082838 22 333 0.0 0.0 0.00 0.00 0.00 99 1013.8
20260507082333 22 333 0.0 0.0 0.00 0.00 0.00 99 1014.0
20260507081831 22 333 0.0 0.0 0.00 0.00 0.00 99 1013.9
20260507081327 22 333 0.0 0.0 0.00 0.00 0.00 99 1013.7
20260507080824 22 333 0.0 0.0 0.00 0.00 0.00 99 1013.9
20260507080320 22 317 0.0 0.0 0.00 0.00 0.00 99 1013.9
20260507075815 22 316 0.0 0.0 0.00 0.00 0.00 99 1014.0
20260507075312 22 316 0.0 0.0 0.00 0.00 0.00 99 1014.2
20260507074808 22 316 0.0 0.0 0.00 0.00 0.00 99 1014.0
20260507074306 22 317 0.0 0.0 0.00 0.00 0.00 99 1014.0
20260507073803 22 316 0.0 0.0 0.00 0.00 0.00 99 1014.4
20260507073300 22 316 0.0 0.0 0.00 0.00 0.00 99 1014.3
20260507072757 22 324 0.0 0.0 0.00 0.00 0.00 99 1014.2
20260507072254 22 6 0.0 0.0 0.00 0.00 0.00 99 1014.3
20260507071752 22 6 0.0 0.0 0.00 0.00 0.00 99 1014.0
20260507071248 22 2 0.0 0.0 0.00 0.00 0.00 99 1014.0
20260507070745 22 6 0.0 0.0 0.00 0.00 0.00 99 1014.2
20260507070242 22 306 0.0 0.0 0.00 0.00 0.00 99 1014.0
20260507065738 22 301 1.6 1.6 0.00 0.00 0.00 99 1014.2
20260507065235 22 305 0.0 1.6 0.00 0.00 0.00 99 1014.3
20260507064733 22 320 0.0 0.0 0.00 0.00 0.00 99 1014.3
20260507064232 22 337 0.0 0.0 0.00 0.00 0.00 99 1014.3
20260507063728 22 333 0.0 0.0 0.00 0.00 0.00 99 1014.5
20260507063225 22 304 1.6 1.6 0.00 0.00 0.00 99 1014.4
20260507062722 22 4 0.0 0.0 0.00 0.00 0.00 99 1014.6
20260507062220 22 348 0.0 0.0 0.00 0.00 0.00 99 1014.6
20260507061717 22 336 0.0 1.6 0.00 0.00 0.00 99 1014.6
20260507061215 22 338 0.0 1.6 0.00 0.00 0.00 99 1014.5
20260507060713 22 321 0.0 0.0 0.00 0.00 0.00 98 1014.7
20260507060209 22 272 0.0 0.0 0.00 0.00 0.00 98 1014.6
20260507055705 22 303 0.0 1.6 0.00 0.00 0.00 98 1014.8
20260507055201 22 68 0.0 0.0 0.00 0.00 0.00 98 1015.0
20260507054657 22 120 0.0 0.0 0.00 0.00 0.00 98 1015.0
20260507054154 22 350 0.0 0.0 0.00 0.00 0.00 98 1015.1
20260507053652 22 15 0.0 1.6 0.00 0.00 0.00 98 1015.1
20260507053150 22 295 0.0 1.6 0.00 0.00 0.00 98 1015.2
20260507052648 22 312 1.6 1.6 0.00 0.00 0.00 98 1015.4
20260507052144 22 39 1.6 1.6 0.00 0.00 0.00 98 1015.2
20260507051642 22 307 0.0 0.0 0.00 0.00 0.00 98 1015.2
20260507051138 22 70 1.6 1.6 0.00 0.00 0.00 97 1015.4
20260507050635 22 46 1.6 1.6 0.00 0.00 0.00 97 1015.3
20260507050132 23 337 1.6 1.6 0.00 0.00 0.00 98 1015.6
20260507045629 23 130 0.0 0.0 0.00 0.00 0.00 98 1015.7
20260507045125 23 339 0.0 0.0 0.00 0.00 0.00 98 1015.9
20260507044622 23 305 1.6 1.6 0.00 0.00 0.00 98 1016.0
20260507044119 23 16 0.0 1.6 0.00 0.00 0.00 98 1016.0
20260507043615 23 17 0.0 0.0 0.00 0.00 0.00 98 1015.9
20260507043112 23 336 0.0 0.0 0.00 0.00 0.00 98 1016.2
20260507042608 23 20 0.0 0.0 0.00 0.00 0.00 98 1016.1
20260507042104 23 130 0.0 0.0 0.00 0.00 0.00 98 1016.2
20260507041601 23 185 0.0 0.0 0.00 0.00 0.00 98 1016.0
20260507041058 23 188 0.0 0.0 0.00 0.00 0.00 98 1016.2
20260507040554 23 89 0.0 1.6 0.00 0.00 0.00 98 1016.1
20260507040051 23 161 1.6 1.6 0.00 0.00 0.00 98 1016.1
20260507035547 23 172 0.0 1.6 0.00 0.00 0.00 98 1016.2
20260507035043 23 200 0.0 0.0 0.00 0.00 0.00 97 1016.1